Content
SEND FEEDBACK

Daily
Averages
Monthly
Summary
United States of America

NEW YORK - CENTRAL PARK, NEW YORK


Home > North America > United States > New York
Elevation: 4 meters     Latitude: 40 47N     Longitude: 073 58W

WEATHER
 
SELECT A DAY
Number of Records: 152,146;   Date Range: 11/1/95 - 11/22/14
 
SHARE

PRINT THIS DATA

[ ← Previous Day ]
WEATHER ALMANAC - 23 APRIL, 2013
[ Next Day → ]
[ °F ]   °C
Weather ElementAverageHighLow
Temperature7.4 °C11.1 °C (6:51 pm)5 °C (4:15 am)
Dewpoint1.8 °C3.9 °C (11:26 am)-1.1 °C (5:51 am)
Humidity68 %86 % (11:26 am)61 % (6:51 pm)
Barometer1026.4 hPa1032.5 hPa (1:14 am)1020 hPa (10:51 pm)
Wind Speed15.3 km/h25.9 km/h (2:51 am)
Wind Gust40.7 km/h (4:15 am)
Weather ElementAverage
Visibility15.4 km
Wind DirectionNE (48.4 °)

Weather ElementTotal
Precipitation---
Heating Degree Days10.3 (Base 18.3)
Averaged from 31 records on 23 April, 2013
WEATHER CONDITIONS BREAKOUT
WIND DIRECTION BREAKOUT
WEATHER BY HOUR - 23 APRIL, 2013
[ °F ]   °C
Local TimeTemperatureDewpointHumidityBarometerVisibilityWind DirectionWind SpeedGust SpeedPrecipitationEventsConditions
1:14 AM6.7 °C0 °C63 %1032.5 hPa16.1 kmEast (80°)18.5 km/h33.3 km/hMostly Cloudy
1:51 AM6.7 °C0.6 °C65 %1031.5 hPa16.1 kmENE (70°)18.5 km/h33.3 km/hOvercast
2:26 AM5.6 °C0 °C67 %1031.5 hPa16.1 kmENE (70°)24.1 km/h37 km/hScattered Clouds
2:51 AM5.6 °C0 °C67 %1030.5 hPa16.1 kmENE (70°)25.9 km/h38.9 km/hScattered Clouds
3:51 AM5.6 °C0 °C67 %1030.1 hPa16.1 kmENE (60°)22.2 km/h38.9 km/hOvercast
4:15 AM5 °C-0.6 °C67 %1030.5 hPa16.1 kmEast (80°)24.1 km/h40.7 km/hMostly Cloudy
4:51 AM5 °C-0.6 °C67 %1029.5 hPa16.1 kmNE (50°)20.4 km/h33.3 km/hMostly Cloudy
5:07 AM5 °C-0.6 °C67 %1030.1 hPa16.1 kmNE (50°)18.5 km/h33.3 km/hOvercast
5:51 AM5 °C-1.1 °C65 %1029.5 hPa16.1 kmENE (60°)24.1 km/h31.5 km/hOvercast
6:49 AM5 °C-1 °C65 %1029.8 hPa16.1 kmNE (50°)18.5 km/h31.5 km/hOvercast
6:51 AM5 °C-1.1 °C65 %1029.1 hPa16.1 kmENE (60°)14.8 km/h29.6 km/hOvercast
7:51 AM5 °C-0.6 °C67 %1028.8 hPa16.1 kmENE (60°)14.8 km/hOvercast
8:51 AM5.6 °C0.6 °C70 %1028.4 hPa16.1 kmENE (60°)18.5 km/hOvercast
9:51 AM6.1 °C1.1 °C71 %1028.1 hPa16.1 kmVariable11.1 km/hOvercast
10:51 AM6.1 °C2.2 °C76 %1027.8 hPa8 kmNE (50°)20.4 km/h31.5 km/hHaze
11:26 AM6.1 °C3.9 °C86 %1028.1 hPa6.4 kmVariable11.1 km/hOvercast
11:51 AM6.7 °C3.3 °C79 %1027.1 hPa16.1 kmVariable9.3 km/h35.2 km/hOvercast
12:51 PM7.2 °C3.3 °C76 %1026.1 hPa16.1 kmENE (60°)16.7 km/h31.5 km/hOvercast
1:06 PM7.8 °C3.3 °C73 %1026.4 hPa16.1 kmNE (50°)14.8 km/hOvercast
1:51 PM8.9 °C3.3 °C68 %1024.7 hPa16.1 kmNE (50°)13 km/hOvercast
2:51 PM8.9 °C3.3 °C68 %1024 hPa16.1 kmVariable9.3 km/hOvercast
3:51 PM9.4 °C3.3 °C66 %1023.4 hPa16.1 kmVariable7.4 km/hOvercast
4:51 PM10.6 °C3.9 °C63 %1023.4 hPa16.1 kmNorth (10°)14.8 km/hOvercast
5:51 PM10.6 °C3.9 °C63 %1022.7 hPa16.1 kmNNE (30°)14.8 km/hOvercast
6:51 PM11.1 °C3.9 °C61 %1022 hPa16.1 kmVariable9.3 km/hOvercast
7:51 PM10.6 °C3.9 °C63 %1021.3 hPa16.1 kmVariable7.4 km/hOvercast
8:51 PM10.6 °C3.9 °C63 %1020.3 hPa16.1 kmNE (50°)14.8 km/h27.8 km/hOvercast
9:03 PM10 °C3.9 °C66 %1021 hPa16.1 kmVariable9.3 km/hMostly Cloudy
9:51 PM9.4 °C3.3 °C66 %1020.7 hPa16.1 kmNE (40°)11.1 km/hPartly Cloudy
10:51 PM8.9 °C3.3 °C68 %1020 hPa16.1 kmVariable5.6 km/hClear
11:51 PM8.3 °C3.3 °C71 %1020 hPa16.1 kmNNW (340°)9.3 km/hClear
Hourly data recorded from KNYC, located 0 kilometers away from New York - Central Park, New York







STORIES FROM OUR PARTNERS